TimeEST,TemperatureF,Dew PointF,Humidity,Sea Level PressureIn,VisibilityMPH,Wind Direction,Wind SpeedMPH,Gust SpeedMPH,PrecipitationIn,Events,Conditions,WindDirDegrees,DateUTC
12:53 AM,-7.1,-11.9,79,30.25,10.0,Calm,Calm,-,N/A,,Clear,0,2013-01-18 05:53:00
1:53 AM,-7.1,-13.0,75,30.27,10.0,Calm,Calm,-,N/A,,Clear,0,2013-01-18 06:53:00
2:53 AM,-8.0,-13.0,79,30.31,10.0,Calm,Calm,-,N/A,,Clear,0,2013-01-18 07:53:00
3:53 AM,-8.0,-11.9,83,30.31,10.0,Calm,Calm,-,N/A,,Clear,0,2013-01-18 08:53:00
4:53 AM,-8.0,-13.0,79,30.32,10.0,Calm,Calm,-,N/A,,Clear,0,2013-01-18 09:53:00
5:53 AM,-8.0,-14.1,75,30.36,10.0,SW,3.5,-,N/A,,Clear,230,2013-01-18 10:53:00
6:53 AM,-6.0,-11.0,79,30.38,10.0,Calm,Calm,-,N/A,,Overcast,0,2013-01-18 11:53:00
7:53 AM,-4.0,-9.9,76,30.39,9.0,SW,4.6,-,N/A,,Partly Cloudy,220,2013-01-18 12:53:00
8:53 AM,3.0,-2.9,76,30.41,10.0,WSW,5.8,-,N/A,,Clear,240,2013-01-18 13:53:00
9:53 AM,7.0,-2.0,67,30.42,10.0,WSW,8.1,-,N/A,,Clear,240,2013-01-18 14:53:00
10:53 AM,10.9,-2.0,56,30.43,10.0,West,12.7,21.9,N/A,,Clear,280,2013-01-18 15:53:00
11:53 AM,12.9,-2.0,51,30.41,10.0,West,12.7,20.7,N/A,,Clear,280,2013-01-18 16:53:00
12:53 PM,14.0,-2.9,47,30.41,10.0,West,13.8,-,N/A,,Clear,260,2013-01-18 17:53:00
1:53 PM,16.0,-2.0,45,30.39,10.0,West,12.7,17.3,N/A,,Clear,280,2013-01-18 18:53:00
2:53 PM,17.1,-2.0,43,30.37,10.0,WSW,9.2,20.7,N/A,,Clear,250,2013-01-18 19:53:00
3:53 PM,17.1,-2.0,43,30.36,10.0,WSW,5.8,-,N/A,,Clear,240,2013-01-18 20:53:00
4:53 PM,15.1,-0.9,49,30.33,10.0,South,3.5,-,N/A,,Scattered Clouds,170,2013-01-18 21:53:00
5:53 PM,15.1,1.0,54,30.30,10.0,SE,3.5,-,N/A,,Overcast,140,2013-01-18 22:53:00
6:53 PM,17.1,3.0,54,30.30,10.0,SSE,4.6,-,N/A,,Overcast,150,2013-01-18 23:53:00
7:50 PM,17.6,6.8,63,30.26,2.5,South,4.6,-,0.00,Snow,Light Snow,190,2013-01-19 00:50:00
7:53 PM,18.0,7.0,62,30.29,2.5,South,5.8,-,0.00,Snow,Light Snow,190,2013-01-19 00:53:00
8:04 PM,17.6,8.6,68,30.25,1.5,SSE,4.6,-,0.00,Snow,Light Snow,160,2013-01-19 01:04:00
8:17 PM,17.6,10.4,73,30.24,2.5,SSE,3.5,-,0.00,Snow,Light Snow,160,2013-01-19 01:17:00
8:24 PM,17.6,10.4,73,30.23,8.0,SSE,3.5,-,0.00,Snow,Light Snow,160,2013-01-19 01:24:00
8:53 PM,19.9,12.9,74,30.25,8.0,SSW,6.9,-,0.00,,Overcast,200,2013-01-19 01:53:00
9:53 PM,21.9,10.9,63,30.22,10.0,SSW,10.4,-,N/A,,Overcast,200,2013-01-19 02:53:00
10:53 PM,23.0,10.0,58,30.17,10.0,SSW,5.8,17.3,N/A,,Overcast,210,2013-01-19 03:53:00
11:53 PM,24.1,10.0,55,30.13,10.0,South,6.9,-,N/A,,Overcast,180,2013-01-19 04:53:00